Terug naar catalogus

COSMOS 1997

ActiefMilitairPO
NORAD 19788·PAYLOAD·🇷🇺 Russia

Gelanceerd Feb 10, 1989 vanaf Plesetsk Cosmodrome

Loading…

Volgende Passages (komende 24 uur)

TLE

VersSource: Space-Track

Epoch: Sep 14, 2026, 01:31 UTC

1 19788U 89009D   26257.06367477  .00000024  00000-0  72359-4 0  9997
2 19788  82.6191 304.2027 0010410 136.9359 245.9904 12.63691105733732

Volg COSMOS 1997 in realtime met AllMySat

Download on the App Store